Home   Weather   Davenport   Past weeks
Flag for USA

Past Weather in Davenport, Iowa, USA — Yesterday and Last 2 Weeks

Now
37 °F

Overcast.


Feels Like: 30 °F
Forecast: 50 / 35 °F
Wind: 9 mph from Northwest

Location: Davenport Municipal Airport

Current Time: Mar 21, 2019 at 3:34:46 am

Latest Report: Mar 21, 2019 at 2:52 am


Visibility: 10 mi

Pressure: 30.03 "Hg

Humidity: 82%

Dew Point: 32 °F

Location of DavenportLocation

Past Weather in Davenport — Graph

°F

Davenport Temperature Yesterday

Maximum temperature yesterday: 52 °F (at 3:23 pm)
Minimum temperature yesterday: 38 °F (at 2:52 am)
Average temperature yesterday: 43 °F

High & Low Weather Summary for the Past Weeks

 TemperatureHumidityPressure
High61 °F (Mar 14, 10:52 am)100% (Mar 17, 6:52 am)30.46 "Hg (Mar 17, 6:52 am)
Low8 °F (Mar 6, 5:52 am)41% (Mar 19, 4:52 pm)29.23 "Hg (Mar 14, 10:52 am)
Average36 °F75%30.13 "Hg
* Reported Mar 6 12:52 am — Mar 21 1:52 am, Davenport. Weather by CustomWeather, © 2019

Note: Actual official high and low records may vary slightly from our data, if they occured in-between our weather recording intervals... More about our weather records

Advertising

Davenport Weather History for the Previous 24 Hours

Scroll right to see more
 ConditionsComfort  
Time TempWeatherWind HumidityBarometerVisibility
1:52 am
Thu, Mar 21
37 °FMostly cloudy.9 mph79%30.02 "Hg10 mi
1:18 am38 °FOvercast.9 mph76%30.02 "Hg10 mi
12:52 am38 °FOvercast.9 mph76%30.02 "Hg10 mi
11:52 pm
Wed, Mar 20
39 °FOvercast.15 mph76%30.01 "Hg10 mi
11:19 pm39 °FOvercast.13 mph79%30.00 "Hg10 mi
10:52 pm40 °FOvercast.10 mph77%30.00 "Hg10 mi
9:52 pm41 °FOvercast.13 mph76%30.00 "Hg10 mi
9:27 pm42 °FMostly cloudy.14 mph73%29.98 "Hg10 mi
8:52 pm42 °FOvercast.12 mph76%29.98 "Hg10 mi
8:25 pm42 °FOvercast.10 mph76%29.97 "Hg10 mi
7:52 pm44 °FOvercast.10 mph79%29.96 "Hg10 mi
6:52 pm45 °FOvercast.10 mph76%29.94 "Hg10 mi
5:52 pm46 °FOvercast.16 mph71%29.94 "Hg10 mi
4:52 pm47 °FPartly sunny.16 mph74%29.93 "Hg10 mi
3:52 pm50 °FPassing clouds.16 mph68%29.92 "Hg10 mi
3:23 pm52 °FBroken clouds.22 mph69%29.92 "Hg10 mi
3:01 pm51 °FMostly cloudy.18 mph69%29.93 "Hg10 mi
2:25 pm50 °FMore clouds than sun.17 mph71%29.95 "Hg10 mi
1:52 pm49 °FPartly sunny.14 mph74%29.97 "Hg10 mi
1:37 pm49 °FBroken clouds.12 mph77%29.98 "Hg10 mi
12:52 pm46 °FOvercast.14 mph83%30.00 "Hg8 mi
12:35 pm45 °FMostly cloudy.12 mph82%30.00 "Hg8 mi
11:52 am45 °FOvercast.10 mph82%30.02 "Hg6 mi
11:31 am44 °FFog.9 mph85%30.02 "Hg6 mi
11:07 am42 °FFog.8 mph89%30.04 "Hg6 mi
10:52 am42 °FFog.7 mph85%30.04 "Hg6 mi
9:52 am41 °FFog.3 mph89%30.04 "Hg3 mi
9:27 am40 °FFog.No wind93%30.04 "Hg2 mi
9:18 am40 °FFog.No wind93%30.04 "Hg3 mi
8:39 am39 °FFog.3 mph93%30.05 "Hg3 mi
7:52 am39 °FFog.5 mph93%30.08 "Hg2 mi
6:52 am39 °FLight rain. Fog.6 mph93%30.09 "Hg3 mi
5:52 am39 °FLight rain. Fog.5 mph89%30.08 "Hg6 mi
5:17 am40 °FMostly cloudy.6 mph86%30.09 "Hg10 mi
4:52 am39 °FMostly cloudy.8 mph89%30.09 "Hg10 mi
3:52 am38 °FOvercast.6 mph90%30.14 "Hg10 mi
Weather by CustomWeather, © 2019

See weather overview